Overview Statistics Trail Chart Weather Telemetry Raw packets
 

This is the latest recevied weather packets stored in our database for station/object KB1WCR. If no packets are shown the sender has not sent any weather packets the latest 10 day(s).

<< 28 29 30 31 32 33 34 >>
Time Temp. Humidity Pressure Rain* Wind** Luminosity Snow
1788224234 13.33° C 96% 1018.4 hPa 0 mm - 0 W/m² -
1788223929 13.33° C 96% 1018.2 hPa 0 mm - 0 W/m² -
1788223629 13.89° C 95% 1018.4 hPa 0 mm - 0 W/m² -
1788223324 13.89° C 94% 1018.2 hPa 0 mm - 0 W/m² -
1788223018 14.44° C 93% 1018.3 hPa 0 mm - 0 W/m² -
1788222717 14.44° C 92% 1018.5 hPa 0 mm - 0 W/m² -
1788222412 15° C 91% 1018.3 hPa 0 mm - 0 W/m² -
1788222124 15.56° C 90% 1018.2 hPa 0 mm - 0 W/m² -
1788221802 15.56° C 90% 1018.2 hPa 0 mm - 0 W/m² -
1788221497 15° C 90% 1018.2 hPa 0 mm - 0 W/m² -
1788221193 15° C 92% 1018.2 hPa 0 mm - 0 W/m² -
1788220887 15° C 92% 1017.9 hPa 0 mm - 0 W/m² -
1788220581 15.56° C 90% 1018 hPa 0 mm - 0 W/m² -
1788220277 15.56° C 90% 1018.2 hPa 0 mm - 0 W/m² -
1788219976 16.11° C 88% 1018 hPa 0 mm - 0 W/m² -
1788219672 16.67° C 87% 1018.1 hPa 0 mm - 0 W/m² -
1788219367 16.11° C 88% 1018.2 hPa 0 mm - 0 W/m² -
1788219062 16.67° C 87% 1018.1 hPa 0 mm - 1 W/m² -
1788218757 16.67° C 85% 1018.1 hPa 0 mm - 1 W/m² -
1788218453 17.22° C 84% 1018.1 hPa 0 mm - 2 W/m² -
1788218149 17.78° C 82% 1018.2 hPa 0 mm - 4 W/m² -
1788217845 17.78° C 81% 1018.4 hPa 0 mm - 5 W/m² -
1788217540 17.78° C 80% 1018.2 hPa 0 mm - 7 W/m² -
1788217240 18.33° C 78% 1018.4 hPa 0 mm - 9 W/m² -
1788216935 18.89° C 76% 1018.1 hPa 0 mm - 12 W/m² -

* Rain latest hour (hover to see other rain measurements)
** Current wind speed in m/s (hover to see current wind gust speed)